Regional Weather Roundup
Issued by NWS

Home | Current Version | Previous Version | Graphics & Text | Print | Product List | Glossary On
Versions: 1 2 3 4 5 6 7 8 9 10 11 12 13 14 15 16 17 18 19 20 21 22 23 24 25 26 27 28 29 30 31 32 33 34 35 36 37 38 39 40 41 42 43 44 45 46 47 48 49 50
000
ASUS43 KLSX 152307
RWRMO

WEATHER SUMMARY FOR MISSOURI
NATIONAL WEATHER SERVICE SPRINGFIELD MO
500 PM CST FRI DEC 15 2017

NOTE: "FAIR" INDICATES FEW OR NO CLOUDS BELOW 12,000 FEET WITH NO
       SIGNIFICANT WEATHER AND/OR OBSTRUCTIONS TO VISIBILITY.
       CURRENT SKY AND/OR WEATHER CONDITIONS ARE NOT AVAILABLE FOR
       CHILLICOTHE AND FARMINGTON.

MOZ001>031-035>038-043-044-053-054-160000-
...NORTHERN AND WESTERN MISSOURI...

CITY           SKY/WX    TMP DP  RH WIND       PRES   REMARKS
KANSAS CTY INT PTCLDY    42  22  44 SW12      29.98F
KANSAS C DTWN  CLEAR     44  22  41 SW10      29.98F
LEE`S SUMMIT   CLEAR     43  22  43 SW13      30.00F
ST JOSEPH      CLEAR     45  24  43 SW14      29.95F
CHILLICOTHE      N/A     43  21  41 SW6       29.98F
KIRKSVILLE     CLEAR     40  24  53 SW9       29.97S

$$
MOZ066>068-077>081-088>096-101>105-160000-
...SOUTHWEST MISSOURI...

CITY           SKY/WX    TMP DP  RH WIND       PRES   REMARKS
SPRINGFIELD    CLEAR     42  24  49 W6        30.08F
JOPLIN         CLEAR     43  24  47 SW10      30.11F

$$
MOZ032>034-039>042-045>050-055>058-069>072-160000-
...CENTRAL MISSOURI...

CITY           SKY/WX    TMP DP  RH WIND       PRES   REMARKS
COLUMBIA       CLEAR     38  24  57 SW10      30.04S
JEFFERSON CITY CLEAR     41  25  53 SW6       30.07S
ROLLA          PTCLDY    37  25  61 W7        30.07S
SEDALIA        CLEAR     42  25  50 SW10      30.05F
WHITEMAN AFB   CLEAR     40  22  48 SW10      29.99F
WARRENSBURG    CLEAR     41  21  45 SW9       30.02F
OSAGE BEACH    PTCLDY    41  26  55 SW8       30.09R

$$
MOZ051-052-059>065-160000-
...EAST CENTRAL MISSOURI...

CITY           SKY/WX    TMP DP  RH WIND       PRES   REMARKS
ST LOUIS INTL  PTCLDY    40  20  44 W6        30.06S
SPIRIT OF STL  PTCLDY    40  20  44 SW8       30.06R
ST CHARLES     CLEAR     40  18  41 SW5       30.05S

$$
MOZ072>076-082>087-097>100-106>115-160000-
...SOUTH CENTRAL AND SOUTHEAST MISSOURI...

CITY           SKY/WX    TMP DP  RH WIND       PRES   REMARKS
CAPE GIRARDEAU PTCLDY    42  28  57 S10       30.09S
FARMINGTON     CLEAR     41  24  51 W5        30.08S
POPLAR BLUFF   CLEAR     45  27  49 SW6       30.09S
WEST PLAINS    CLEAR     42  25  50 W6        30.09F

$$



USA.gov is the U.S. government's official web portal to all federal, state and local government web resources and services.